Hourly Data Report for June 30, 2004

TORONTO CITY
ONTARIO

43°40'00.000" N
79°24'00.000" W
112.50 m
6158355
71508
XTO

Download Data

Hourly Data (June 2004)
Hourly Data Report for June 30, 2004
TIME
LST
Temp Definition
°C
Dew Point Definition
°C
Rel Hum Definition
%
Precip. Amount Definition
mm

Wind Dir Definition
10's deg

Wind Spd Definition
km/h
Visibility Definition
km
Stn Press Definition
kPa
Hmdx Definition


Wind Chill Definition


Weather Definition


00:00 16.2 8.2 59   LegendMM LegendMM LegendMM 100.47     LegendNANA
01:00 16.0 8.7 62   LegendMM LegendMM LegendMM 100.48     LegendNANA
02:00 15.6 9.1 65   LegendMM LegendMM LegendMM 100.50     LegendNANA
03:00 14.5 9.0 70   LegendMM LegendMM LegendMM 100.56     LegendNANA
04:00 14.5 9.6 72   LegendMM LegendMM LegendMM 100.58     LegendNANA
05:00 13.5 9.7 78   LegendMM LegendMM LegendMM 100.61     LegendNANA
06:00 13.8 9.6 76   LegendMM LegendMM LegendMM 100.64     LegendNANA
07:00 16.4 10.3 67   LegendMM LegendMM LegendMM 100.66     LegendNANA
08:00 18.2 9.3 56   LegendMM LegendMM LegendMM 100.70     LegendNANA
09:00 19.9 9.2 50   LegendMM LegendMM LegendMM 100.71     LegendNANA
10:00 21.0 7.7 42   LegendMM LegendMM LegendMM 100.72     LegendNANA
11:00 22.0 9.6 45   LegendMM LegendMM LegendMM 100.68     LegendNANA
12:00 21.9 8.2 41   LegendMM LegendMM LegendMM 100.66     LegendNANA
13:00 22.8 8.3 39   LegendMM LegendMM LegendMM 100.66     LegendNANA
14:00 23.7 11.1 45   LegendMM LegendMM LegendMM 100.61 26   LegendNANA
15:00 23.6 12.0 48   LegendMM LegendMM LegendMM 100.57 26   LegendNANA
16:00 22.9 12.5 52   LegendMM LegendMM LegendMM 100.52 25   LegendNANA
17:00 20.8 11.0 53   LegendMM LegendMM LegendMM 100.51     LegendNANA
18:00 19.9 12.2 61   LegendMM LegendMM LegendMM 100.45     LegendNANA
19:00 19.7 12.1 62   LegendMM LegendMM LegendMM 100.42     LegendNANA
20:00 19.7 13.4 67   LegendMM LegendMM LegendMM 100.37     LegendNANA
21:00 19.2 14.3 73   LegendMM LegendMM LegendMM 100.36     LegendNANA
22:00 18.5 14.8 79   LegendMM LegendMM LegendMM 100.40     LegendNANA
23:00 18.5 14.8 79   LegendMM LegendMM LegendMM 100.43     LegendNANA

Notes on Data Quality.

Legend

  • E = Estimated
  • M = Missing
  • NA = Not Available*
  • [empty] = Indicates an unobserved value
Date modified: